FW6320 Weather Reports


Display with metric or nautical units.
time (UTC)temp
F
wind
direction
speed
MPH
gust
MPH
rain 1hr
in
rain 24hr
in
rain mn
in
humidity
%
barometer
mb
20260904163529 86 202 6.0 12.0 0.00 0.00 0.00 65 1015.0
20260904163046 86 199 5.0 9.0 0.00 0.00 0.00 65 1015.1
20260904162524 86 189 4.0 9.0 0.00 0.00 0.00 65 1015.1
20260904162021 86 209 6.0 11.0 0.00 0.00 0.00 65 1015.1
20260904161543 86 221 4.0 11.0 0.00 0.00 0.00 64 1015.0
20260904161025 85 199 6.0 11.0 0.00 0.00 0.00 65 1015.0
20260904160528 85 196 6.0 10.0 0.00 0.00 0.00 65 1015.1
20260904160048 85 207 5.0 10.0 0.00 0.00 0.00 64 1015.1
20260904155524 85 195 5.0 9.0 0.00 0.00 0.00 66 1015.0
20260904155025 84 200 4.0 8.0 0.00 0.00 0.00 69 1015.0
20260904154549 84 173 4.0 8.0 0.00 0.00 0.00 71 1015.0
20260904154023 84 207 4.0 8.0 0.00 0.00 0.00 71 1015.0
20260904153526 84 192 3.0 10.0 0.00 0.00 0.00 72 1015.0
20260904153050 84 205 4.0 10.0 0.00 0.00 0.00 72 1015.0
20260904152524 84 211 5.0 10.0 0.00 0.00 0.00 72 1015.0
20260904152024 84 219 4.0 10.0 0.00 0.00 0.00 73 1014.9
20260904151546 84 178 3.0 10.0 0.00 0.00 0.00 74 1014.8
20260904151026 84 182 2.0 11.0 0.00 0.00 0.00 74 1014.9
20260904150529 84 190 3.0 11.0 0.00 0.00 0.00 74 1014.8
20260904150053 84 192 3.0 9.0 0.00 0.00 0.00 75 1014.8
20260904145524 83 203 4.0 9.0 0.00 0.00 0.00 75 1014.9
20260904145025 83 232 4.0 11.0 0.00 0.00 0.00 75 1015.0
20260904144552 84 178 3.0 11.0 0.00 0.00 0.00 76 1014.8
20260904144023 83 192 5.0 11.0 0.00 0.00 0.00 77 1014.8
20260904143521 82 232 3.0 8.0 0.00 0.00 0.00 80 1014.7
20260904143043 82 196 3.0 7.0 0.00 0.00 0.00 80 1014.8
20260904142525 81 186 1.0 7.0 0.00 0.00 0.00 81 1014.8
20260904142026 81 134 2.0 11.0 0.00 0.00 0.00 82 1014.7
20260904141548 80 175 2.0 11.0 0.00 0.00 0.00 82 1014.6
20260904141024 80 175 5.0 11.0 0.00 0.00 0.00 83 1014.7
20260904140524 80 159 2.0 11.0 0.00 0.00 0.00 83 1014.6
20260904140049 80 140 2.0 11.0 0.00 0.00 0.00 83 1014.6
20260904135525 80 142 5.0 13.0 0.00 0.00 0.00 84 1014.6
20260904135024 80 150 4.0 13.0 0.00 0.00 0.00 84 1014.5
20260904134547 80 160 4.0 11.0 0.00 0.00 0.00 84 1014.4
20260904134022 80 145 4.0 11.0 0.00 0.00 0.00 84 1014.4
20260904133525 79 129 5.0 9.0 0.00 0.00 0.00 84 1014.4
20260904133042 79 125 4.0 9.0 0.00 0.00 0.00 85 1014.4
20260904132525 79 0 2.0 9.0 0.00 0.00 0.00 85 1014.4
20260904132024 79 134 5.0 10.0 0.00 0.00 0.00 84 1014.3
20260904131547 79 137 2.0 10.0 0.00 0.00 0.00 85 1014.3
20260904131028 79 0 4.0 8.0 0.00 0.00 0.00 85 1014.3
20260904130524 79 151 3.0 9.0 0.00 0.00 0.00 85 1014.1
20260904130047 79 140 3.0 9.0 0.00 0.00 0.00 85 1014.1
20260904125527 79 137 4.0 9.0 0.00 0.00 0.00 85 1014.2
20260904125024 79 150 2.0 8.0 0.00 0.00 0.00 85 1014.0
20260904124558 79 0 1.0 10.0 0.00 0.00 0.00 85 1014.0
20260904124026 78 139 5.0 10.0 0.00 0.00 0.00 85 1014.0
20260904123525 78 139 5.0 8.0 0.00 0.00 0.00 85 1013.9
20260904123049 78 137 4.0 8.0 0.00 0.00 0.00 85 1013.9
20260904122524 78 139 3.0 7.0 0.00 0.00 0.00 85 1014.0
20260904122022 78 137 2.0 7.0 0.00 0.00 0.00 85 1013.9
20260904121541 78 138 3.0 9.0 0.00 0.00 0.00 85 1013.8
20260904121024 78 130 3.0 9.0 0.00 0.00 0.00 85 1013.7
20260904120524 78 146 2.0 7.0 0.00 0.00 0.00 85 1013.6
20260904120047 78 0 0.0 3.0 0.00 0.00 0.00 85 1013.5
20260904115525 78 0 1.0 7.0 0.00 0.00 0.00 85 1013.5
20260904115028 78 173 1.0 7.0 0.00 0.00 0.00 85 1013.6
20260904114549 78 141 1.0 5.0 0.00 0.00 0.00 85 1013.7
20260904114025 78 144 2.0 8.0 0.00 0.00 0.00 85 1013.7
20260904113524 78 122 3.0 8.0 0.00 0.00 0.00 85 1013.6
20260904113052 78 0 1.0 5.0 0.00 0.00 0.00 85 1013.6
20260904112525 78 0 0.0 3.0 0.00 0.00 0.00 85 1013.5
20260904112026 78 143 0.0 7.0 0.00 0.00 0.00 85 1013.5
20260904111543 78 146 1.0 8.0 0.00 0.00 0.00 85 1013.6
20260904111024 78 142 3.0 8.0 0.00 0.00 0.00 85 1013.5
20260904110525 78 144 4.0 9.0 0.00 0.00 0.00 85 1013.4
20260904110049 78 148 4.0 9.0 0.00 0.00 0.00 85 1013.5
20260904105526 78 141 3.0 9.0 0.00 0.00 0.00 85 1013.5
20260904105025 78 142 3.0 9.0 0.00 0.00 0.00 85 1013.6
20260904104552 78 140 3.0 9.0 0.00 0.00 0.00 85 1013.5
20260904104023 78 151 1.0 6.0 0.00 0.00 0.00 85 1013.5
20260904103526 78 143 2.0 6.0 0.00 0.00 0.00 85 1013.4
20260904103048 78 0 0.0 4.0 0.00 0.00 0.00 84 1013.3
20260904102522 78 0 0.0 5.0 0.00 0.00 0.00 84 1013.4
20260904102023 78 0 0.0 9.0 0.00 0.00 0.00 85 1013.3
20260904101543 78 185 0.0 9.0 0.00 0.00 0.00 85 1013.3
20260904101022 78 153 2.0 9.0 0.00 0.00 0.00 84 1013.3
20260904100525 79 136 1.0 8.0 0.00 0.00 0.00 84 1013.3
20260904100043 79 144 3.0 8.0 0.00 0.00 0.00 84 1013.3
20260904095524 79 0 0.0 7.0 0.00 0.00 0.00 83 1013.2
20260904095024 79 0 1.0 8.0 0.00 0.00 0.00 83 1013.1
20260904094600 79 0 1.0 8.0 0.00 0.00 0.00 83 1013.1
20260904094024 79 0 1.0 8.0 0.00 0.00 0.00 83 1013.1
20260904093527 79 156 2.0 8.0 0.00 0.00 0.00 83 1013.2
20260904093048 79 159 1.0 7.0 0.00 0.00 0.00 83 1013.2
20260904092522 79 0 1.0 7.0 0.00 0.00 0.00 83 1013.2
20260904092021 79 155 1.0 10.0 0.00 0.00 0.00 83 1013.2
20260904091542 79 0 1.0 10.0 0.00 0.00 0.00 83 1013.0
20260904091023 79 139 2.0 6.0 0.00 0.00 0.00 83 1013.1
20260904090521 79 0 1.0 5.0 0.00 0.00 0.00 83 1013.1
20260904090040 79 0 1.0 12.0 0.00 0.00 0.00 83 1013.0
20260904085524 79 182 2.0 12.0 0.00 0.00 0.00 83 1013.1
20260904085026 79 0 4.0 12.0 0.00 0.00 0.00 83 1013.1
20260904084548 79 162 1.0 10.0 0.00 0.00 0.00 83 1013.0
20260904084023 79 0 3.0 10.0 0.00 0.00 0.00 82 1013.1
20260904083525 79 143 2.0 9.0 0.00 0.00 0.00 82 1012.9
20260904083044 79 147 1.0 8.0 0.00 0.00 0.00 82 1013.0
20260904082524 79 144 2.0 8.0 0.00 0.00 0.00 81 1013.0
20260904082022 79 163 3.0 8.0 0.00 0.00 0.00 81 1013.0
20260904081600 79 173 1.0 8.0 0.00 0.00 0.00 81 1013.0
20260904081025 79 142 2.0 7.0 0.00 0.00 0.00 80 1012.9
20260904080525 79 152 0.0 5.0 0.00 0.00 0.00 80 1013.1
20260904080042 79 0 0.0 5.0 0.00 0.00 0.00 80 1013.0
20260904075525 80 196 2.0 8.0 0.00 0.00 0.00 80 1013.1
20260904075026 80 179 2.0 8.0 0.00 0.00 0.00 79 1013.0
20260904074604 80 0 2.0 6.0 0.00 0.00 0.00 79 1013.0
20260904074024 80 206 2.0 7.0 0.00 0.00 0.00 79 1013.1
20260904073524 80 193 2.0 7.0 0.00 0.00 0.00 78 1013.1
20260904073100 80 182 1.0 7.0 0.00 0.00 0.00 78 1013.1
20260904072523 80 198 1.0 8.0 0.00 0.00 0.00 78 1013.1
20260904072021 80 199 3.0 8.0 0.00 0.00 0.00 78 1013.3
20260904071543 80 183 3.0 8.0 0.00 0.00 0.00 77 1013.3
20260904071025 80 193 2.0 8.0 0.00 0.00 0.00 77 1013.3
20260904070528 80 184 2.0 7.0 0.00 0.00 0.00 77 1013.3
20260904070053 80 147 0.0 9.0 0.00 0.00 0.00 76 1013.3
20260904065523 80 155 2.0 9.0 0.00 0.00 0.00 76 1013.3
20260904065025 80 183 3.0 9.0 0.00 0.00 0.00 76 1013.3
20260904064548 80 0 3.0 9.0 0.00 0.00 0.00 75 1013.5
20260904064021 80 190 2.0 13.0 0.00 0.00 0.00 75 1013.5
20260904063521 81 203 3.0 13.0 0.00 0.00 0.00 75 1013.4
20260904063042 81 119 1.0 9.0 0.00 0.00 0.00 74 1013.4
20260904062523 81 160 2.0 9.0 0.00 0.00 0.00 74 1013.4
20260904062021 81 136 1.0 8.0 0.00 0.00 0.00 73 1013.4
20260904061541 81 0 2.0 8.0 0.00 0.00 0.00 73 1013.4
20260904061028 81 162 1.0 7.0 0.00 0.00 0.00 73 1013.4
20260904060526 81 137 1.0 8.0 0.00 0.00 0.00 72 1013.5
20260904060043 81 0 2.0 8.0 0.00 0.00 0.00 72 1013.4
20260904055523 81 150 1.0 7.0 0.00 0.00 0.00 72 1013.4
20260904055025 81 0 2.0 8.0 0.00 0.00 0.00 72 1013.4
20260904054549 81 157 0.0 9.0 0.00 0.00 0.00 72 1013.4
20260904054022 81 165 3.0 10.0 0.00 0.00 0.00 71 1013.5
20260904053521 81 0 3.0 10.0 0.00 0.00 0.00 72 1013.6
20260904053042 81 146 3.0 9.0 0.00 0.00 0.00 72 1013.6
20260904052521 81 119 3.0 9.0 0.00 0.00 0.00 72 1013.5
20260904052025 81 143 4.0 11.0 0.00 0.00 0.00 72 1013.5
20260904051543 81 121 5.0 13.0 0.00 0.00 0.00 72 1013.4
20260904051025 81 137 6.0 13.0 0.00 0.00 0.00 72 1013.4
20260904050525 81 142 3.0 12.0 0.00 0.00 0.00 72 1013.3
20260904050050 81 148 7.0 12.0 0.00 0.00 0.00 72 1013.3
20260904045525 81 130 5.0 12.0 0.00 0.00 0.00 72 1013.2
20260904045027 81 146 7.0 13.0 0.00 0.00 0.00 72 1013.2
20260904044547 81 158 5.0 13.0 0.00 0.00 0.00 72 1013.2
20260904044027 81 143 5.0 11.0 0.00 0.00 0.00 72 1013.1
20260904043525 81 146 7.0 11.0 0.00 0.00 0.00 72 1013.2
20260904043054 81 145 6.0 11.0 0.00 0.00 0.00 72 1013.1
20260904042523 81 137 5.0 11.0 0.00 0.00 0.00 72 1013.1
20260904042022 81 134 6.0 11.0 0.00 0.00 0.00 72 1013.1
20260904041543 82 144 6.0 11.0 0.00 0.00 0.00 71 1013.2
20260904041024 82 153 5.0 12.0 0.00 0.00 0.00 71 1013.3
20260904040525 82 143 7.0 14.0 0.00 0.00 0.00 71 1013.3
20260904040052 82 142 6.0 14.0 0.00 0.00 0.00 71 1013.3
20260904035525 82 153 7.0 14.0 0.00 0.00 0.00 71 1013.3
20260904035024 82 160 7.0 14.0 0.00 0.00 0.00 71 1013.3
20260904034552 82 123 6.0 10.0 0.00 0.00 0.00 71 1013.3
20260904034022 82 145 6.0 11.0 0.00 0.00 0.00 71 1013.3
20260904033529 82 137 6.0 14.0 0.00 0.00 0.00 71 1013.3
20260904033042 83 140 8.0 14.0 0.00 0.00 0.00 71 1013.3
20260904032523 83 147 8.0 12.0 0.00 0.00 0.00 72 1013.2
20260904032018 83 142 6.0 14.0 0.00 0.00 0.00 73 1013.3
20260904031544 83 137 8.0 14.0 0.00 0.00 0.00 73 1013.3
20260904031024 83 139 9.0 13.0 0.00 0.00 0.00 73 1013.3
20260904030525 83 142 7.0 14.0 0.00 0.00 0.00 73 1013.2
20260904030049 83 124 9.0 14.0 0.00 0.00 0.00 73 1013.2
20260904025524 83 140 7.0 15.0 0.00 0.00 0.00 73 1013.1
20260904025023 83 146 7.0 15.0 0.00 0.00 0.00 72 1013.1
20260904024541 84 159 10.0 18.0 0.00 0.00 0.00 72 1013.0
20260904024023 84 139 8.0 18.0 0.00 0.00 0.00 71 1012.9
20260904023518 84 129 12.0 18.0 0.00 0.00 0.00 69 1012.7
20260904023042 85 155 8.0 15.0 0.00 0.00 0.00 66 1012.7
20260904022525 85 141 5.0 13.0 0.00 0.00 0.00 65 1012.5
20260904022025 85 134 8.0 16.0 0.00 0.00 0.00 65 1012.5
20260904021555 85 133 7.0 16.0 0.00 0.00 0.00 66 1012.3
20260904021025 85 152 5.0 12.0 0.00 0.00 0.00 66 1012.3
20260904020525 85 151 7.0 14.0 0.00 0.00 0.00 66 1012.2
20260904020041 85 149 5.0 14.0 0.00 0.00 0.00 66 1012.0
20260904015525 85 124 5.0 13.0 0.00 0.00 0.00 66 1011.9
20260904015024 86 134 6.0 13.0 0.00 0.00 0.00 66 1011.9
20260904014623 86 141 7.0 13.0 0.00 0.00 0.00 66 1011.8
20260904014024 86 137 5.0 15.0 0.00 0.00 0.00 66 1011.7
20260904013522 86 136 5.0 15.0 0.00 0.00 0.00 66 1011.7
20260904013043 87 149 10.0 15.0 0.00 0.00 0.00 65 1011.7
20260904012521 87 121 6.0 15.0 0.00 0.00 0.00 65 1011.6
20260904012021 87 171 6.0 15.0 0.00 0.00 0.00 65 1011.5
20260904011542 87 129 6.0 15.0 0.00 0.00 0.00 65 1011.5
20260904011023 87 148 10.0 15.0 0.00 0.00 0.00 64 1011.4
20260904010525 87 134 9.0 15.0 0.00 0.00 0.00 64 1011.5
20260904010049 88 138 9.0 15.0 0.00 0.00 0.00 64 1011.5
20260904005524 88 142 8.0 14.0 0.00 0.00 0.00 64 1011.4
20260904005024 88 149 9.0 14.0 0.00 0.00 0.00 64 1011.4
20260904004547 88 123 7.0 15.0 0.00 0.00 0.00 64 1011.5
20260904004025 88 129 7.0 15.0 0.00 0.00 0.00 65 1011.4
20260904003523 88 144 10.0 16.0 0.00 0.00 0.00 64 1011.3
20260904003041 88 136 8.0 16.0 0.00 0.00 0.00 64 1011.3
20260904002523 88 150 10.0 16.0 0.00 0.00 0.00 64 1011.3
20260904002021 89 141 8.0 15.0 0.00 0.00 0.00 64 1011.2
20260904001542 89 163 8.0 18.0 0.00 0.00 0.00 64 1011.2
20260904001025 89 151 11.0 18.0 0.00 0.00 0.00 64 1011.2
20260904000518 89 154 9.0 15.0 0.00 0.00 0.00 64 1011.1
20260904000135 89 117 9.0 15.0 0.00 0.00 0.00 64 1011.2
20260903235529 89 139 8.0 14.0 0.00 0.00 0.00 64 1011.0
20260903235025 89 121 8.0 14.0 0.00 0.00 0.00 64 1011.0
20260903234551 90 165 8.0 12.0 0.00 0.00 0.00 63 1010.9
20260903234024 90 128 8.0 12.0 0.00 0.00 0.00 63 1011.0
20260903233519 90 172 4.0 13.0 0.00 0.00 0.00 63 1011.1
20260903233042 90 146 7.0 14.0 0.00 0.00 0.00 62 1010.9
20260903232528 90 121 8.0 14.0 0.00 0.00 0.00 62 1010.6
20260903232018 90 161 9.0 14.0 0.00 0.00 0.00 62 1010.5
20260903231555 91 154 7.0 15.0 0.00 0.00 0.00 62 1010.6
20260903231020 91 120 8.0 15.0 0.00 0.00 0.00 61 1010.4
20260903230526 91 141 9.0 18.0 0.00 0.00 0.00 61 1010.5
20260903230044 91 114 5.0 18.0 0.00 0.00 0.00 61 1010.6
20260903225525 91 136 6.0 17.0 0.00 0.00 0.00 61 1010.4
20260903225023 91 150 9.0 16.0 0.00 0.00 0.00 61 1010.5
20260903224548 91 141 8.0 16.0 0.00 0.00 0.00 61 1010.8
20260903224023 91 151 8.0 15.0 0.00 0.00 0.00 62 1010.8
20260903223524 91 140 8.0 15.0 0.00 0.00 0.00 61 1010.6
20260903223043 91 121 9.0 18.0 0.00 0.00 0.00 62 1010.7
20260903222521 91 157 11.0 18.0 0.00 0.00 0.00 62 1010.7
20260903222019 91 159 9.0 17.0 0.00 0.00 0.00 61 1010.4
20260903221544 91 141 12.0 17.0 0.00 0.00 0.00 61 1010.4
20260903221020 91 97 9.0 17.0 0.00 0.00 0.00 62 1010.5
20260903220524 92 171 7.0 19.0 0.00 0.00 0.00 61 1010.6
20260903220105 92 82 10.0 19.0 0.00 0.00 0.00 62 1010.4
20260903215524 92 140 8.0 16.0 0.00 0.00 0.00 62 1010.4
20260903215024 92 144 6.0 17.0 0.00 0.00 0.00 61 1010.5
20260903214552 92 137 8.0 17.0 0.00 0.00 0.00 62 1010.6
20260903214024 93 126 7.0 15.0 0.00 0.00 0.00 61 1010.6
20260903213524 93 122 7.0 15.0 0.00 0.00 0.00 60 1010.6
20260903213048 94 153 5.0 12.0 0.00 0.00 0.00 61 1010.6
20260903212519 93 184 5.0 15.0 0.00 0.00 0.00 61 1010.7
20260903212019 93 116 6.0 19.0 0.00 0.00 0.00 61 1010.8
20260903211544 92 161 10.0 19.0 0.00 0.00 0.00 62 1010.8
20260903211019 93 157 10.0 19.0 0.00 0.00 0.00 60 1010.9
20260903210524 94 143 5.0 13.0 0.00 0.00 0.00 60 1010.9
20260903210047 93 171 5.0 13.0 0.00 0.00 0.00 61 1011.0
20260903205525 93 123 6.0 14.0 0.00 0.00 0.00 61 1011.1
20260903205024 94 137 6.0 14.0 0.00 0.00 0.00 60 1011.1
20260903204546 93 112 6.0 18.0 0.00 0.00 0.00 61 1011.2
20260903204022 93 146 7.0 18.0 0.00 0.00 0.00 61 1011.2
20260903203525 94 144 5.0 13.0 0.00 0.00 0.00 60 1011.3
20260903203044 93 152 6.0 13.0 0.00 0.00 0.00 59 1011.4
20260903202520 94 141 5.0 12.0 0.00 0.00 0.00 61 1011.5
20260903202025 93 170 6.0 17.0 0.00 0.00 0.00 61 1011.5
20260903201549 93 148 5.0 17.0 0.00 0.00 0.00 61 1011.6
20260903201023 92 120 9.0 17.0 0.00 0.00 0.00 62 1011.5
20260903200525 92 125 4.0 15.0 0.00 0.00 0.00 62 1011.6
20260903200043 91 90 6.0 15.0 0.00 0.00 0.00 64 1011.4
20260903195525 90 158 3.0 15.0 0.00 0.00 0.00 64 1011.6
20260903195025 90 162 7.0 15.0 0.00 0.00 0.00 64 1011.7
20260903194549 91 115 6.0 16.0 0.00 0.00 0.00 64 1011.7
20260903194017 92 135 5.0 16.0 0.00 0.00 0.00 63 1011.7
20260903193521 92 134 3.0 12.0 0.00 0.00 0.00 62 1011.9
20260903193053 92 167 4.0 13.0 0.00 0.00 0.00 61 1011.9
20260903192523 91 192 7.0 14.0 0.00 0.00 0.00 62 1012.0
20260903192023 92 165 5.0 14.0 0.00 0.00 0.00 62 1012.1
20260903191546 92 166 6.0 14.0 0.00 0.00 0.00 63 1012.1
20260903191024 92 118 5.0 15.0 0.00 0.00 0.00 62 1012.2
20260903190518 92 164 5.0 15.0 0.00 0.00 0.00 62 1012.4
20260903190055 91 142 8.0 15.0 0.00 0.00 0.00 63 1012.4
20260903185523 92 146 3.0 10.0 0.00 0.00 0.00 61 1012.5
20260903185025 93 138 3.0 9.0 0.00 0.00 0.00 61 1012.6
20260903184541 92 184 3.0 10.0 0.00 0.00 0.00 62 1012.6
20260903184026 90 144 4.0 13.0 0.00 0.00 0.00 64 1012.6
20260903183527 91 154 7.0 13.0 0.00 0.00 0.00 62 1012.8
20260903183048 92 148 5.0 12.0 0.00 0.00 0.00 61 1012.9
20260903182522 91 126 4.0 13.0 0.00 0.00 0.00 64 1012.9
20260903182023 90 137 5.0 13.0 0.00 0.00 0.00 64 1012.9
20260903181548 90 130 6.0 13.0 0.00 0.00 0.00 65 1013.0
20260903181021 90 119 7.0 13.0 0.00 0.00 0.00 64 1013.0
20260903180521 90 145 6.0 13.0 0.00 0.00 0.00 65 1013.1
20260903180049 90 161 5.0 12.0 0.00 0.00 0.00 66 1013.2
20260903175518 90 181 7.0 12.0 0.00 0.00 0.00 66 1013.3
20260903175024 90 163 5.0 10.0 0.00 0.00 0.00 66 1013.2
20260903174540 89 110 3.0 9.0 0.00 0.00 0.00 68 1013.3
20260903174025 88 154 3.0 12.0 0.00 0.00 0.00 68 1013.4
20260903173524 88 136 5.0 14.0 0.00 0.00 0.00 69 1013.5
20260903173051 88 163 5.0 14.0 0.00 0.00 0.00 69 1013.5
20260903172525 88 128 5.0 12.0 0.00 0.00 0.00 68 1013.6
20260903172023 88 0 2.0 14.0 0.00 0.00 0.00 69 1013.6
20260903171543 88 193 5.0 14.0 0.00 0.00 0.00 68 1013.6
20260903171019 89 200 3.0 10.0 0.00 0.00 0.00 67 1013.6
20260903170521 88 138 4.0 14.0 0.00 0.00 0.00 69 1013.7
20260903170053 87 146 6.0 14.0 0.00 0.00 0.00 70 1013.6
20260903165521 87 137 5.0 13.0 0.00 0.00 0.00 70 1013.7
20260903165021 87 190 4.0 11.0 0.00 0.00 0.00 70 1013.7
20260903164549 87 142 3.0 16.0 0.00 0.00 0.00 70 1013.8
20260903164025 87 155 8.0 16.0 0.00 0.00 0.00 69 1013.8